sat.trackr.live / text

‹ back to catalog

KUIPER-00063

NORAD 64523 · 2025-134Z

PAYLOAD ACTIVE UNKNOWN

§ Identity

Operator
Country
US
Launch date
2025-06-23
Launch site
AFETR
Launch vehicle
Mass (kg)
RCS (m²)

External: N2YO · Heavens-Above · Gunter

§ Orbital elements

Epoch: 2026-09-21T17:33:25.208928Z

Period
97.30 min
Inclination
51.9026°
Eccentricity
0.0000669
Mean motion
14.79939822 rev/d
Perigee alt
629.0 km
Apogee alt
630.0 km
Semi-major
7,007.7 km
B*
2.5411e-4
RAAN
91.2490°
Arg perigee
110.6611°
Mean anomaly
249.4424°
Rev number
6,903

§ Raw data

KUIPER-000631 64523U 25134Z   26264.73154177  .00001717  00000+0  25411-3 0  99912 64523  51.9026  91.2490 0000669 110.6611 249.4424 14.79939822 69038

JSON: /api/v1/satellites/64523 · /tle

For live sub-satellite position, see the globe view (requires WebGL).

§ Visibility from observer

Set your observer location to see the next 7 days of passes ≥ 10°. The values pass through the URL so the page stays shareable.

No JS? Fill the form by hand. The geolocation button needs JavaScript.